Location: Newark
(7.0858°N, 171.3717°E)
Time: 03:10:31
(UTC+00:00)

A-11 Canister half - Pass Details

Date: 12 December 2020
Orbit: 1517 x 1683 km, 47.2° (Epoch: 16 January)

Event Time Altitude Azimuth Distance (km) Brightness Sun altitude
Rises 17:05:04 0° 209° (SSW) 4,655 11.5 -21.9°
Reaches altitude 10° 17:08:11 10° 205° (SSW) 3,672 11.0 -21.2°
Maximum altitude 17:17:08 56° 129° (SE) 1,774 9.6 -19.2°
Drops below altitude 10° 17:26:14 10° 53° (NE) 3,732 11.4 -17.1°
Sets 17:29:24 0° 49° (NE) 4,736 11.9 -16.3°
